Billings, MT

1:09 PM MST on February 08, 2016 (GMT -0700)
Jupiter Sulphur | | Change Station
CLOSE
Current Station
Personal Weather Station
Location: Billings, MT
Elevation: 3114 ft
Nearby Weather Stations

Elev 3114 ft 45.78 °N, 108.49 °W | Updated 6 minutes ago

Partly Cloudy
Partly Cloudy
58.9 °F
Feels Like 58.9 °F
N
3.0
Wind Variable Wind from NNW
Gusts 22.0 mph

Today
High -- | Low -- °F
--% Chance of Precip.
Yesterday
High -- | Low -- °F
Precip. -- in
Pressure 30.40 in
Visibility 10.0 miles
Clouds Few 8500 ft
Scattered Clouds 20000 ft
Dew Point 29 °F
Humidity 32%
Rainfall 0.00 in
Snow Depth Not available.
7:27 AM 5:29 PM
New Moon, 0% visible
METAR KBIL 081953Z 32023G31KT 10SM FEW085 SCT200 14/M05 A3036 RMK AO2 PK WND 32031/1951 SLP292 ACSL ALQDS T01441050
Pressure 30.40 in
Visibility 10.0 miles
Clouds Few 8500 ft
Scattered Clouds 20000 ft
Dew Point 29 °F
Humidity 32%
Rainfall 0.00 in
Snow Depth Not available.
7:27 AM 5:29 PM
New Moon, 0% visible
METAR KBIL 081953Z 32023G31KT 10SM FEW085 SCT200 14/M05 A3036 RMK AO2 PK WND 32031/1951 SLP292 ACSL ALQDS T01441050

10-Day Weather Forecast

Almanac

Astronomy

Feb. 08, 2016 Rise Set
Actual Time
Civil Twilight
Nautical Twilight
Astronomical Twilight
Moon
Length of Visible Light
Length of Day
Tomorrow will be .
, % of the Moon is Illuminated

Today's Extremes

State Highs State Lows

Community

WunderPhotos

Upload Photos

1,891,503 photos uploaded!

WunderBlog® & News

Nearby

Air Quality

  Air Quality AQ Index Pollutant
Not available.

Snow Depth

Station Depth Elevation

Earthquake Activity

City Distance Mag. Time & Date
Minimum magnitude displayed is 2.5.

Coastal Water Temperatures

Place Temperature

Stations

Nearby Weather Stations

Station Location Temp. Windchill Dew Point Humidity Wind Precip. Elev Updated Type
                   

Watches & Warnings

There are currently no watches in effect.